Location: Caltech
(34.1382°N, 118.1253°W)
Time: 09:55:47
(UTC-07:00)

SEDSat Delta rocket - Visible Passes

Search period start: 27 August 2014 00:00
Search period end: 06 September 2014 00:00
Orbit: 534 x 1010 km, 31.4° (Epoch: 25 August)

Date Brightness Start Highest point End Pass type
(mag) Time Alt. Az. Time Alt. Az. Time Alt. Az.
27 Aug 4.8 04:17:00 31° S 04:17:00 31° S 04:21:18 10° SE visible
27 Aug 5.7 05:58:51 10° WSW 06:01:35 13° SSW 06:04:24 10° S visible
28 Aug 5.9 03:41:02 15° SE 03:41:02 15° SE 03:42:06 10° SE visible
28 Aug 5.4 05:21:20 14° SW 05:22:28 15° SSW 05:25:50 10° S visible
29 Aug 5.7 04:45:26 14° S 04:45:26 14° S 04:47:05 10° S visible
29 Aug 5.0 20:57:21 10° SSW 20:58:09 13° S 20:58:09 13° S visible
30 Aug 4.5 20:18:58 10° S 20:21:25 16° SSE 20:21:53 15° SE visible
31 Aug 4.8 21:24:20 10° SW 21:25:46 20° SW 21:25:46 20° SW visible
01 Sep 3.5 20:45:36 10° SW 20:49:16 35° SSE 20:49:16 35° SSE visible
02 Sep 3.7 20:06:51 10° SW 20:10:26 31° SSE 20:12:41 18° ESE visible
02 Sep 5.4 21:52:17 10° WSW 21:52:55 14° WSW 21:52:55 14° WSW visible
03 Sep 3.7 21:13:26 10° WSW 21:16:14 40° SW 21:16:14 40° SW visible
04 Sep 2.9 20:34:34 10° WSW 20:38:31 54° S 20:39:30 42° SE visible
05 Sep 3.1 19:55:38 10° WSW 19:59:39 51° S 20:02:42 16° E visible
05 Sep 5.1 21:41:38 10° W 21:42:56 20° WSW 21:42:56 20° WSW visible
